JBU8032 EHAM-KBOS

Flight info

Callsign JBU8032
Flight time N/A
Altitude 34000
Route IDRID L980 MANGO DCT ENHAQ DCT GAJIT DCT BAPHU DCT LESLU/M078F340 DCT RODEL/M078F360 NATG NICSO/N0445F380 N258B TUSKY DCT EURRO OOSHN5
Aircraft A21N/M-SDE2E3FGHIRWXY/LB1

Departure

Time 2026-05-06 12:05
Airport Amsterdam Airport Schiphol (EHAM)

Arrival

Time N/A
Airport Boston Logan International Airport (KBOS)
Time Latitude Longitude Altitude Speed Heading
2026-05-06 11:30 52.30442 4.76323 1 ft 0 kts 239°
2026-05-06 11:50 52.30447 4.76335 1 ft 3 kts 238°
2026-05-06 11:50 52.30463 4.76367 1 ft 4 kts 211°
2026-05-06 11:51 52.30486 4.76378 1 ft 4 kts 165°
2026-05-06 11:51 52.30501 4.76368 1 ft 1 kts 148°
2026-05-06 11:51 52.30503 4.76366 1 ft 0 kts 148°
2026-05-06 11:56 52.30499 4.76371 1 ft 4 kts 147°
2026-05-06 11:56 52.30484 4.76386 1 ft 4 kts 147°
2026-05-06 11:56 52.30459 4.76412 1 ft 5 kts 147°
2026-05-06 11:56 52.30430 4.76442 1 ft 5 kts 147°
2026-05-06 11:57 52.30398 4.76475 1 ft 6 kts 147°
2026-05-06 11:57 52.30350 4.76521 1 ft 9 kts 157°
2026-05-06 11:57 52.30291 4.76503 1 ft 9 kts 219°
2026-05-06 11:57 52.30255 4.76418 1 ft 9 kts 238°
2026-05-06 11:58 52.30221 4.76328 1 ft 10 kts 238°
2026-05-06 11:58 52.30185 4.76233 1 ft 10 kts 238°
2026-05-06 11:58 52.30144 4.76128 1 ft 13 kts 237°
2026-05-06 11:58 52.30089 4.75985 1 ft 15 kts 237°
2026-05-06 11:59 52.30033 4.75838 1 ft 15 kts 238°
2026-05-06 11:59 52.29976 4.75689 1 ft 16 kts 238°
2026-05-06 11:59 52.29918 4.75539 1 ft 16 kts 238°
2026-05-06 11:59 52.29860 4.75387 1 ft 16 kts 239°
2026-05-06 12:00 52.29836 4.75220 1 ft 15 kts 286°
2026-05-06 12:00 52.29900 4.75083 1 ft 15 kts 313°
2026-05-06 12:00 52.29968 4.74956 1 ft 15 kts 311°
2026-05-06 12:00 52.30040 4.74824 1 ft 15 kts 311°
2026-05-06 12:01 52.30110 4.74695 1 ft 16 kts 311°
2026-05-06 12:01 52.30182 4.74561 1 ft 16 kts 311°
2026-05-06 12:01 52.30254 4.74427 1 ft 16 kts 311°
2026-05-06 12:01 52.30328 4.74290 1 ft 16 kts 311°
2026-05-06 12:02 52.30402 4.74155 1 ft 16 kts 311°
2026-05-06 12:02 52.30411 4.73993 1 ft 15 kts 257°
2026-05-06 12:02 52.30408 4.73961 0 ft 1 kts 265°
2026-05-06 12:02 52.30409 4.73913 -1 ft 0 kts 271°
2026-05-06 12:03 52.30409 4.73910 -1 ft 2 kts 271°
2026-05-06 12:04 52.30413 4.73827 -2 ft 12 kts 287°
2026-05-06 12:04 52.30489 4.73759 -1 ft 11 kts
2026-05-06 12:04 52.30578 4.73768 -3 ft 42 kts
2026-05-06 12:04 52.31093 4.73815 3 ft 107 kts
2026-05-06 12:05 52.32066 4.73908 3 ft 168 kts
2026-05-06 12:05 52.33316 4.74013 307 ft 189 kts
2026-05-06 12:05 52.34633 4.73854 1090 ft 185 kts 349°
2026-05-06 12:05 52.35812 4.73221 2058 ft 179 kts 345°
2026-05-06 12:06 52.37070 4.72459 2380 ft 209 kts 343°
2026-05-06 12:06 52.38535 4.71589 2734 ft 237 kts 343°